CAPE
151 178 234 193 49 2 0 0 0 0 0 0 0 0 0 0 0 0 0 0 0 0 0 0 0 0 0 0 0 0 0 0
11 6 10 0 0 0 0 0 0 0 0 0 0 0 0 0 0 0 0 0 0 0 0 0 0 0 0 0 0 0 0 0
7 0 0 0 0 0 0 0 0 0 0 0 0 0 0 0 0 0 0 0 0 0 0 0 0 0 0 0 0 0 0 0
0 0 0 0 0 0 0 0 0 0 0 0 0 0 0 0 0 0 0 0 0 0 0 0 0 0 0 0 0 0 0 0
0 0 0 0 0 0 0 0 0 0 0 0 0 0 0 0 0 0 0 0 0 0 0 0 0 0 0 0 0 0 0 0
0 0 0 0 0 0 0 0 0 0 0 0 0 0 0 0 0 0 0 0 0 0 0 0 0 0 0 0 0 0 0 0
0 0 0 0 0 0 0 0 0 0 0 0 0 0 0 0 0 0 0 0 0 0 0 0 0 0 0 0 0 0 0 0
0 0 0 0 0 0 0 0 0 0 0 0 0 0 0 0 0 0 0 0 0 0 0 0 0 0 0 0 0 0 0 0
0 0 0 0 0 0 0 0 0 0 0 0 0 0 0 0 0 0 0 0 0 0 0 0 0 0 0 0 0 0 0 0
0 0 0 0 0 0 0 0 0 0 0 0 0 0 0 0 0 0 0 0 0 0 0 0 0 0 0 0 0 0 0 0
0 0 0 0 0 0 0 0 0 0 0 0 0 0 0 0 0 0 0 0 0 0 0 0 0 0 0 0 0 0 0 0
0 0 0 0 0 0 0 0 0 0 0 0 0 0 0 0 0 0 0 0 0 0 0 0 0 0 0 0 0 0 0 0
0 0 0 0 0 0 0 0 0 0 0 0 0 0 0 0 0 0 0 0 0 0 0 0 0 0 0 0 0 0 0 0
0 0 0 0 0 0 0 0 0 0 0 0 0 0 0 0 0 0 0 0 0 0 0 0 0 0 0 0 0 0 0 0
0 0 0 0 0 0 0 0 0 0 0 0 0 0 0 0 0 0 0 0 0 0 0 0 0 0 0 0 0 0 0 0
0 0 0 0 0 0 0 0 0 0 0 0 0 0 0 0 0 0 0 0 0 0 0 0 0 0 0 0 0 0 0 0
0 0 0 0 0 0 0 0 0 0 0 0 0 0 0 0 0 0 0 0 0 0 0 0 0 0 0 0 0 0 0 0
0 0 0 0 0 0 0 0 0 0 0 0 0 0 0 0 0 0 0 0 0 0 0 0 0 0 0 0 0 0 0 0
0 0 0 0 0 0 0 0 0 0 0 0 0 0 0 0 0 0 0 0 0 0 0 0 0 0 0 0 0 0 0 0
0 0 0 0 0 0 0 0 0 0 0 0 0 0 0 0 0 0 0 0 0 0 0 0 0 0 0 0 0 0 0 0
CIN
-146 -137 -129 -150 -223 -63 -0 -0 -0 -0 -0 -0 -0 -0 -0 -0 -0 -0 -0 -0 -0 -0 -0 -0 -0 -0 -0 -0 -0 -0 -0 -0
-255 -256 -256 -0 -0 -0 -0 -0 -0 -0 -0 -0 -0 -0 -0 -0 -0 -0 -0 -0 -0 -0 -0 -0 -0 -0 -0 -0 -0 -0 -0 -0
-263 -1 -0 -0 -0 -0 -0 -0 -0 -0 -0 -0 -0 -0 -0 -0 -0 -0 -0 -0 -0 -0 -0 -0 -0 -0 -0 -0 -0 -0 -0 -0
-0 -0 -0 -0 -0 -0 -0 -0 -0 -0 -0 -0 -0 -0 -0 -0 -0 -0 -0 -0 -0 -0 -0 -0 -0 -0 -0 -0 -0 -0 -0 -0
-0 -0 -0 -0 -0 -0 -0 -0 -0 -0 -0 -0 -0 -0 -0 -0 -0 -0 -0 -0 -0 -0 -0 -0 -0 -0 -0 -0 -0 -0 -0 -0
-0 -0 -0 -0 -0 -0 -0 -0 -0 -0 -0 -0 -0 -0 -0 -0 -0 -0 -0 -0 -0 -0 -0 -0 -0 -0 -0 -0 -0 -0 -0 -0
-0 -0 -0 -0 -0 -0 -0 -0 -0 -0 -0 -0 -0 -0 -0 -0 -0 -0 -0 -0 -0 -0 -0 -0 -0 -0 -0 -0 -0 -0 -0 -0
-0 -0 -0 -0 -0 -0 -0 -0 -0 -0 -0 -0 -0 -0 -0 -0 -0 -0 -0 -0 -0 -0 -0 -0 -0 -0 -0 -0 -0 -0 -0 -0
-0 -0 -0 -0 -0 -0 -0 -0 -0 -0 -0 -0 -0 -0 -0 -0 -0 -0 -0 -0 -0 -0 -0 -0 -0 -0 -0 -0 -0 -0 -0 -0
-0 -0 -0 -0 -0 -0 -0 -0 -0 -0 -0 -0 -0 -0 -0 -0 -0 -0 -0 -0 -0 -0 -0 -0 -0 -0 -0 -0 -0 -0 -0 -0
-0 -0 -0 -0 -0 -0 -0 -0 -0 -0 -0 -0 -0 -0 -0 -0 -0 -0 -0 -0 -0 -0 -0 -0 -0 -0 -0 -0 -0 -0 -0 -0
-0 -0 -0 -0 -0 -0 -0 -0 -0 -0 -0 -0 -0 -0 -0 -0 -0 -0 -0 -0 -0 -0 -0 -0 -0 -0 -0 -0 -0 -0 -0 -0
-0 -0 -0 -0 -0 -0 -0 -0 -0 -0 -0 -0 -0 -0 -0 -0 -0 -0 -0 -0 -0 -0 -0 -0 -0 -0 -0 -0 -0 -0 -0 -0
-0 -0 -0 -0 -0 -0 -0 -0 -0 -0 -0 -0 -0 -0 -0 -0 -0 -0 -0 -0 -0 -0 -0 -0 -0 -0 -0 -0 -0 -0 -0 -0
-0 -0 -0 -0 -0 -0 -0 -0 -0 -0 -0 -0 -0 -0 -0 -0 -0 -0 -0 -0 -0 -0 -0 -0 -0 -0 -0 -0 -0 -0 -0 -0
-0 -0 -0 -0 -0 -0 -0 -0 -0 -0 -0 -0 -0 -0 -0 -0 -0 -0 -0 -0 -0 -0 -0 -0 -0 -0 -0 -0 -0 -0 -0 -0
-0 -0 -0 -0 -0 -0 -0 -0 -0 -0 -0 -0 -0 -0 -0 -0 -0 -0 -0 -0 -0 -0 -0 -0 -0 -0 -0 -0 -0 -0 -0 -0
-0 -0 -0 -0 -0 -0 -0 -0 -0 -0 -0 -0 -0 -0 -0 -0 -0 -0 -0 -0 -0 -0 -0 -0 -0 -0 -0 -0 -0 -0 -0 -0
-0 -0 -0 -0 -0 -0 -0 -0 -0 -0 -0 -0 -0 -0 -0 -0 -0 -0 -0 -0 -0 -0 -0 -0 -0 -0 -0 -0 -0 -0 -0 -0
-0 -0 -0 -0 -0 -0 -0 -0 -0 -0 -0 -0 -0 -0 -0 -0 -0 -0 -0 -0 -0 -0 -0 -0 -0 -0 -0 -0 -0 -0 -0 -0
Wind_Speed
19 20 19 20 19 20 19 19 19 20 20 20 20 19 18 18 20 21 22 22 23 23 23 23 22 22 22 21 21 22 22 23
18 19 19 19 19 19 19 19 20 20 20 20 18 19 18 19 20 21 22 23 23 24 23 23 22 22 22 21 22 22 23 23
16 18 18 18 18 18 18 17 18 18 18 19 18 19 19 20 21 21 23 23 23 24 23 22 22 22 22 22 23 23 23 23
16 16 17 18 18 18 17 17 17 17 17 18 18 18 19 20 21 22 23 23 23 23 23 22 22 22 22 23 23 23 24 23
15 15 15 16 17 17 17 16 16 16 16 16 18 19 20 21 22 23 23 23 24 24 23 22 22 22 23 23 24 24 24 24
15 15 14 15 16 18 18 17 16 15 15 17 18 20 21 22 23 23 23 23 24 24 23 22 21 22 22 23 24 24 24 24
14 14 14 15 16 18 19 18 18 17 16 16 18 19 21 22 23 23 23 23 23 23 23 22 21 21 22 22 23 23 24 24
13 13 14 15 16 17 19 20 19 17 17 18 18 19 21 22 22 23 23 23 23 23 22 21 21 20 21 22 22 22 23 23
13 14 14 15 16 17 18 18 18 17 17 18 18 19 21 21 22 22 23 23 23 22 22 21 21 20 21 22 22 22 23 24
12 13 14 15 16 17 18 17 17 17 17 17 18 20 21 21 22 22 22 23 23 22 21 20 20 20 21 21 22 22 23 24
10 12 14 14 15 15 16 16 16 16 17 17 18 19 20 21 22 22 22 23 23 22 22 20 21 21 21 22 22 22 23 24
10 12 13 13 13 14 14 13 14 15 16 17 18 19 20 20 21 21 21 22 23 23 22 22 22 21 21 22 22 23 23 24
10 12 12 12 12 11 11 11 12 14 15 16 17 18 19 20 20 21 21 22 22 21 21 21 21 20 19 21 22 22 23 24
10 11 11 11 10 10 10 11 11 12 14 15 16 18 19 19 20 20 21 21 21 20 18 17 18 18 16 17 17 19 22 23
11 10 11 10 10 9 10 10 10 11 12 14 15 16 17 18 19 19 20 20 20 20 17 15 15 19 18 16 18 19 17 18
10 10 11 10 10 9 9 8 9 9 11 12 14 15 16 17 18 18 19 19 20 20 19 17 16 16 18 20 18 16 18 19
12 10 10 9 11 9 8 6 7 8 10 11 13 14 15 16 17 17 17 18 18 18 19 19 18 17 17 17 18 19 19 19
13 13 12 11 11 10 9 6 4 6 7 8 10 13 14 14 15 16 16 16 17 17 18 19 19 18 18 18 17 18 19 20
13 14 14 13 12 12 10 7 3 2 3 5 7 9 11 12 13 15 16 15 15 16 17 17 18 18 18 18 18 18 17 18
15 16 15 13 13 13 10 9 4 2 1 1 3 5 8 9 11 13 14 14 14 14 15 16 17 17 17 17 17 18 18 18
Wind_Direction
65 64 55 57 49 45 40 34 32 38 32 34 38 31 24 17 14 17 20 18 16 16 16 21 29 29 28 24 21 17 13 12
65 68 63 60 54 48 45 35 35 34 27 28 22 34 24 24 14 17 20 20 18 18 20 25 29 29 26 23 20 15 12 9
59 63 64 57 45 39 35 25 28 26 30 23 27 28 25 23 19 17 18 18 16 15 18 25 27 26 27 25 22 18 15 12
62 57 68 68 57 50 40 29 29 34 30 29 24 21 24 20 18 15 14 15 16 18 23 27 28 30 30 28 26 23 19 15
66 65 62 59 54 48 43 42 44 42 33 27 31 32 25 23 19 15 19 18 22 23 26 31 36 39 38 37 33 29 25 21
67 63 58 56 56 59 61 54 49 40 23 30 33 35 26 23 23 22 24 25 27 29 31 33 35 38 41 39 35 32 30 24
71 68 58 59 65 68 72 69 66 60 43 29 28 26 24 24 18 21 24 28 28 29 30 34 40 46 43 39 35 32 29 27
72 72 71 67 66 71 72 73 71 56 47 44 31 24 23 22 23 23 24 25 26 27 30 36 40 45 40 35 33 31 28 26
83 80 75 72 73 74 73 65 63 49 43 45 36 26 26 29 29 26 26 28 28 31 35 39 41 41 37 35 35 32 28 25
84 80 80 75 73 77 75 71 59 51 41 35 31 31 31 29 28 30 32 28 27 31 38 40 40 42 40 38 36 32 27 24
86 90 88 82 80 72 66 65 60 47 32 30 31 32 32 34 37 35 30 23 24 31 37 45 47 45 42 38 34 29 26 20
98 98 94 86 78 70 62 47 44 36 33 33 30 30 31 33 33 30 28 26 28 36 43 44 48 49 45 38 33 28 23 20
117 114 107 98 88 76 59 54 43 34 31 32 33 31 31 30 29 24 23 28 33 38 45 47 44 43 40 33 28 24 20 18
136 127 120 116 102 83 53 61 36 40 37 30 30 31 29 27 26 21 25 30 30 36 44 44 35 28 27 23 14 13 14 14
151 142 136 127 112 82 65 42 41 30 30 26 25 28 29 29 23 26 27 28 31 34 34 35 29 19 18 15 9 4 8 9
163 156 149 139 130 115 111 90 70 41 28 27 25 27 29 28 25 25 24 29 30 29 30 30 28 24 20 17 16 14 3 0
173 168 160 151 149 140 130 98 45 37 36 36 27 22 21 24 27 28 26 26 28 28 27 25 25 22 19 17 15 14 12 2
182 177 173 167 163 158 154 134 83 51 42 44 27 17 18 22 24 24 25 26 25 25 24 23 22 22 20 18 14 9 6 3
191 187 184 179 176 174 172 166 148 105 69 56 30 19 15 22 18 18 17 21 24 21 22 21 20 18 16 15 16 14 13 9
194 194 192 188 184 185 186 185 205 219 186 23 18 10 11 21 16 15 15 17 18 19 18 17 17 16 15 14 14 13 12 9